Погода в Мугалжаре

Хотите узнать прогноз погоды в Мугалжаре? Тогда Вам сюда: Погода в Мугалжаре

Поиск расширенной информации на нашем сайте:

Полезная информация:

Новости сайта



02.01.2020
Опубликован Долгосрочный прогноз погоды по городам России и ближнего зарубежья на январь 2020 года.
Карты: Прогноз на январь и февраль 2020 года, Сравнение прогнозируемой аномалии приземной температуры воздуха на январь 2020 года по разным моделям.




Погода в Мугалжаре - сегодня

Время (UTC), дата Ветер
(°,м/с) 
Видим.   Явления Облачность Т
(°С)
Тd
(°С)
f(%) Тe
(°С)
Pmin
(гПа)
dP
(гПа)
Po
(мм)
O2
(г/м3)
Тmin Tmax R s Состояние
почвы
12 22.10.21 250 (З) 20000 м  {дождь}  9/0 средняя, верхняя 
[Ac lent|Ci fib]
+11.2 +2.5 55 +9  1019.9  0.5  730  282           
15 22.10.21 260 (З) н/о    8/0 средняя 
[Ac trans]
+8.4 -0.1 55 +6  1021.6  1.2  730  285    +11.6  0.6     
18 22.10.21 260 (З) н/о    8/0 средняя 
[Ac trans]
+6.9 -0.5 59 +4  1022.7  0.7  731  287    +11.6  0.6     
21 22.10.21 260 (З) н/о    6/0 средняя 
[Ac trans]
+4.5 -1.5 65 +2  1023.4  0.3  731  290           
00 23.10.21 250 (З) н/о    10/10 600 м 
[Sc]
+4 -1.1 69 +2  1023.6  0.1  731  290           
03 23.10.21 250 (З) 20000 м  гроза, пыльная буря{дождь}  10/10 600 м 
[Sc]
+6.5 +1.9 72 +6  1023.6  0.5  732  288           
06 23.10.21 250 (З) 20000 м    10/10 600 м 
[Sc]
+10.6 +4.4 65 +9  1023.9  732  283  +3.3         
09 23.10.21 250 (З) 20000 м    9/0 средняя 
[Ac trans]
+13.8 +5.7 58 +13  1023.4  732  280           
12 23.10.21 250 (З) 20000 м    9/0 средняя 
[Ac trans]
+14.6 +4.6 51 +14  1023  -0.3  732  279           
15 23.10.21 тихо ()   н/о    ясно 
+10.2 +1.4 54 +10  1024.2  0.5  733  284    +14.9       
18 23.10.21 200 (Ю) н/о    ясно 
+9 +1 57 +8  1024.4  -0.1  732  286    +14.9       
21 23.10.21 200 (Ю) н/о    ясно 
+7.8 +0.6 60 +7  1024.2  -0.4  732  287           
00 24.10.21 200 (Ю) н/о    ясно 
+6 -0.2 64 +3  1023.8  -0.7  732  288           
03 24.10.21 200 (Ю) 20000 м    ясно 
+7.2 +0.5 62 +6  1022.8  -0.7  731  287           
06 24.10.21 200 (Ю) 20000 м    ясно 
+11 +2.8 57 +11  1021.7  -0.4  731  283  +5.3         
09 24.10.21 200 (Ю) 20000 м    ясно 
+14.2 +4.1 51 +13  1019.8  -1.3  730  279           
12 24.10.21 200 (Ю) 20000 м    ясно 
+15.4 +4.1 47 +15  1018.5  -1  729  277           
15 24.10.21 200 (Ю) н/о    ясно 
+11 +1.1 50 +11  1019.2  -0.1  729  282    +15.9       
18 24.10.21 200 (Ю) н/о    ясно 
+9.2 +0.7 55 +9  1018.4  -1.1  728  284    +15.9       
21 24.10.21 200 (Ю) н/о    ясно 
+7.2 -0.1 60 +6  1017.7  -1  727  286           
00 25.10.21 230 (ЮЗ) н/о    ясно 
+5.8 -0.4 64 +5  1016.4  -1.4  726  287           
03 25.10.21 200 (Ю) 20000 м    ясно 
+6.8 -0.3 61 +6  1015.4  -0.8  726  285           
06 25.10.21 200 (Ю) 20000 м    9/0 верхняя 
[Ci ing]
+10.6 +0.9 51 +10  1014.9  0.1  726  281  +5.1         
09 25.10.21 250 (З) 20000 м    9/0 верхняя 
[Ci ing]
+15.2 +0.5 37 +15  1012.3  -1.7  725  276           
12 25.10.21 290 (З) 20000 м    9/0 верхняя 
[Ci sp]
+14 -1.4 35 +13  1012.3  -0.4  724  278           
Время (UTC), дата Ветер
(°,м/с) 
Видим.   Явления Облачность Т
(°С)
Тd
(°С)
f(%) Тe
(°С)
Pmin
(гПа)
dP
(гПа)
Po
(мм)
O2
(г/м3)
Тmin Tmax R s Состояние
почвы

Для получения пояснительной информации подведите курсор к названию столбца.

ПОГОДА в Мугалжаре - архив

Всё, что Вы хотите узнать о погоде в Мугалжаре - удобно и подробно!

Выберите нужную дату (начиная с 1 января 2019* года) и нажмите кнопку "Найти".
Будут отображены архивные сводки погоды по пункту Мугалжар, начиная с указанной даты.


Отображать данные в формате CSV (для использования в таблицах Excel)


Внимание! Наш архив погоды предназначен исключительно для личного некоммерческого использования в познавательных целях. Если Вам необходимы официальные справки о состоянии погоды (для производственных, юридических, коммерческих и т.п. целей), обращайтесь в органы Росгидромета.

*Примечание: данная дата относится к архиву по метеостанциям СССР (Россия, СНГ, Балтия).
Архив по метеостанциям Зарубежной Европы и Азии (кроме Китая) хранится 10 дней, по другим регионам земного шара (Китай, Африка, Америка, Австралия, Океания) - 1 день.

Мугалжар - район местоположения метеостанции


Название, широта, долгота, высота метеостанции:
Мугалжар (Мугоджарская) 48.6°ш. 58.5°д. 398 м над ур. моря [Казахстан]

Дополнительная информация

В oтличие oт бoльшинства пoгoдных сайтoв мы публикуем пoдрoбную метеoинфoрмацию в детальнoм прoфессиoнальнoм фoрмате.

Характеристики температуры и влажнoсти вoздуха измеряются на высoте 2 м в тени вдали oт зданий и деревьев.
Скoрoсть ветра измеряется на высoте 10 м (на урoвне рoста челoвека скoрoсть ветра ниже в 1.5-2 раза). Если метеoстанция нахoдится в гoрoде или в лесу, тo скoрoсть ветра занижена на 2-4 м/с пo сравнению с oткрытым местoм. Скoрoсть ветра над акватoриями крупных рек и oзёр, а также на вершинах хoлмoв на 2-5 м/с выше, чем в oбычных услoвиях.
Атмoсфернoе давление в разных тoчках местнoсти мoжет значительнo oтличаться oт давления на метеoстанции, в зависимoсти oт услoвий рельефа (при пoдъёме на 10 м давление пoнижается примернo на 1 мм рт.ст.).